Location: Antioch Church
(34.9543°N, 88.5145°W)
Time: 22:45:56
(UTC+00:00)

Cosmos 1869 Rocket - Pass Details

Date: 11 December 2019
Orbit: 605 x 633 km, 82.5° (Epoch: 24 January)

Event Time Altitude Azimuth Distance (km) Brightness Sun altitude
Rises 11:16:40 0° 194° (SSW) 2,844 7.0 -18.9°
Reaches altitude 10° 11:18:54 10° 198° (SSW) 1,946 6.1 -18.5°
Maximum altitude 11:23:08 59° 278° (W) 704 3.5 -17.6°
Drops below altitude 10° 11:27:26 10° 358° (N) 1,966 5.9 -16.8°
Sets 11:29:41 0° 3° (N) 2,877 6.8 -16.3°
